Location: Fours
(44.3167°N, 6.7000°E)
Time: 23:49:48
(UTC+00:00)

Cosmos 389 Rocket - Pass Details

Date: 16 October 2021
Orbit: 439 x 468 km, 81.1° (Epoch: 26 November)

Event Time Altitude Azimuth Distance (km) Brightness Sun altitude
Rises 17:20:27 0° 170° (S) 2,413 6.1 -6.7°
Reaches altitude 10° 17:22:35 10° 161° (SSE) 1,549 5.0 -7.1°
Maximum altitude 17:25:41 35° 95° (E) 735 3.0 -7.6°
Drops below altitude 10° 17:28:49 10° 28° (NNE) 1,565 4.8 -8.2°
Sets 17:31:00 0° 19° (NNE) 2,443 5.9 -8.6°
